[[{"header":{"parameterUnit":"m.s-1","parameterCategory":1,"la1":30.2991,"la2":30.254,"lo1":-89.0895,"lo2":-89.0444,"dy":0.0017,"dx":0.0017,"nx":28,"ny":28,"refTime":"2024-03-20T03:00:00:Z","depth":0,"parameterNumber":2,"parameterNumberName":"U-component_of_WINDS"},"data":[0,0,0,0,0,0,0,0,0,0,0,0,0,0,0,0,0,0,0,0,0,0,0,0,0,0,0,0,0,0,0,0,0,0,0,0,0,0,0,0,0,0,0,0,0,0,0,0,0,0,0,0,0,0,0,0,0,0,1.8921,1.8921,0,1.8977,1.8978,1.8978,1.8954,1.8952,1.8951,1.895,1.9009,1.9012,1.9014,0,0,0,0,0,0,0,0,0,0,0,0,0,1.8792,1.8794,1.8921,1.8921,1.8922,1.8977,1.8978,1.8978,1.8954,1.8952,1.895,1.8949,1.9008,1.9011,1.9015,0,0,0,0,0,0,0,0,0,0,0,0,0,1.8848,1.8795,1.8921,1.8916,1.8917,1.8977,1.8978,1.8979,1.8954,1.8952,1.895,1.8948,1.9007,1.9011,1.9015,1.9083,0,0,1.9028,1.903,0,0,0,0,0,0,0,0,1.8845,1.8853,1.8916,1.8917,1.8917,1.8956,1.8954,1.9014,1.8955,1.894,1.8949,1.8947,1.8993,1.8998,1.9014,1.9086,1.9089,1.9029,1.9031,1.9033,1.9034,0,0,0,0,0,0,0,1.8841,1.885,1.8943,1.8917,1.8918,1.8912,1.8917,1.8965,1.8978,1.8941,1.8939,1.8946,1.8993,1.9009,1.9015,1.9089,1.9029,1.9032,1.9035,1.9037,1.9217,1.9219,0,0,0,0,0,0,1.8837,1.8847,1.8941,1.8945,1.8875,1.8916,1.8922,1.8946,1.8977,1.898,1.8948,1.8945,1.9003,1.901,1.9017,1.9095,1.9033,1.9037,1.904,1.9215,1.9217,1.922,0,0,0,0,0,0,1.8834,1.8846,1.8939,1.8895,1.8907,1.892,1.8947,1.8948,1.8964,1.8982,1.8984,1.8963,1.9002,1.9011,1.9066,1.9097,1.9039,1.9043,1.9212,1.9216,1.9219,1.9255,0,0,0,0,0,0,1.8831,1.8845,1.8871,1.8896,1.8909,1.8987,1.8949,1.8951,1.8972,1.8968,1.8996,1.8999,1.9001,1.906,1.907,1.9102,1.9046,1.9209,1.9214,1.9218,1.9251,1.926,1.9267,0,0,0,0,0,1.8826,1.888,1.8872,1.8884,1.8942,1.8989,1.8997,1.8997,1.8974,1.9,1.9011,1.8998,1.9093,1.9065,1.9077,1.9111,1.9207,1.9212,1.9217,1.9248,1.9258,1.9266,0,0,0,0,0,0,1.886,1.8884,1.8875,1.8939,1.8962,1.8985,1.9018,1.9008,1.9039,1.9034,1.9034,1.9041,1.9097,1.911,1.9079,1.9177,1.9146,1.9154,1.9166,1.9175,1.9183,1.9178,1.905,0,0,0,0,0,1.8874,1.891,1.893,1.8984,1.8996,1.9005,1.9026,1.9024,1.9048,1.9058,1.9073,1.9097,1.9132,1.9155,1.9188,1.9254,1.9258,1.9283,1.929,1.9296,1.9302,1.9335,1.9345,1.9236,1.9236,1.9236,0,0,1.8905,1.8923,1.8946,1.8991,1.9009,1.9045,1.9013,1.9054,1.9081,1.9064,1.9116,1.9128,1.9155,1.9215,1.9242,1.9227,1.9333,1.9303,1.9307,1.931,1.9341,1.9351,1.936,1.9239,1.9239,1.9238,0,0,1.8979,1.8997,1.9043,1.9061,1.9087,1.9093,1.9104,1.9128,1.9134,1.9187,1.9173,1.9206,1.9267,1.9285,1.9303,1.9382,1.937,1.9393,1.9431,1.9463,1.9472,1.9479,1.9504,1.9514,1.9399,1.9399,1.9399,0,1.9014,1.9069,1.9068,1.9109,1.9128,1.9113,1.9158,1.9176,1.9213,1.9226,1.9209,1.9283,1.93,1.9363,1.9381,1.9397,1.9408,1.9389,1.9471,1.9478,1.9485,1.9509,1.9519,1.9401,1.9401,1.9401,1.9401,0,1.9109,1.9147,1.918,1.9214,1.9237,1.9281,1.9285,1.9309,1.9305,1.9312,1.9364,1.9384,1.942,1.9435,1.9432,1.9496,1.9486,1.947,1.9439,1.9498,1.952,1.953,1.9405,1.9404,1.9403,1.9403,0,0,1.9205,1.9236,1.9248,1.9262,1.929,1.9319,1.9361,1.9394,1.9413,1.9439,1.9473,1.9524,1.9508,1.9528,1.9527,1.9555,1.9612,1.9535,1.9536,1.9546,1.9681,1.9691,1.9702,1.9606,1.9607,1.9609,1.9678,0,1.9279,1.9351,1.9351,1.9417,1.945,1.9436,1.9472,1.9493,1.95,1.953,1.9538,1.9573,1.9551,1.9562,1.959,1.96,1.9639,1.9595,1.9635,1.9637,1.9626,1.9714,1.9725,1.9789,1.9687,1.9688,1.9689,0,1.9375,1.9401,1.947,1.949,1.9504,1.9537,1.9566,1.9595,1.9617,1.962,1.9641,1.9635,1.9677,1.9646,1.9702,1.9672,1.9689,1.9696,1.9698,1.97,1.9665,1.9715,1.981,1.9818,1.9704,1.9703,1.9702,0,1.9434,1.9487,1.9535,1.9548,1.9573,1.9595,1.9607,1.9627,1.9647,1.9673,1.9685,1.9716,1.9733,1.9756,1.9759,1.9737,1.9814,1.9784,1.9816,1.9816,1.9832,1.983,1.9927,1.9847,1.9847,1.9847,1.9846,0,1.9515,1.9557,1.9561,1.959,1.9637,1.9636,1.9682,1.9691,1.9709,1.9739,1.973,1.9758,1.9761,1.979,1.9792,1.9836,1.9845,1.9847,1.9847,1.9847,1.9846,1.9856,1.985,1.9849,1.9848,1.9848,1.9848,0,1.9588,1.9593,1.9643,1.9662,1.9668,1.9701,1.9717,1.9744,1.9751,1.9788,1.9797,1.9807,1.984,1.9845,1.9885,1.9887,1.9939,1.9935,1.9931,1.9929,1.996,1.9956,2.0065,2.0078,1.9991,1.9992,1.9993,0,1.9638,1.967,1.9692,1.971,1.9723,1.9754,1.9773,1.9773,1.9793,1.982,1.9843,1.9876,1.9901,1.9955,1.9965,1.9995,1.999,2.0026,1.9995,1.9992,1.9987,1.9984,1.9986,2.0032,2.0033,2.0034,2.0034,0,1.9725,1.9725,1.9753,1.9781,1.9803,1.9826,1.9847,1.9863,1.9866,1.9889,1.9922,1.9941,1.9981,2.0012,2.0041,2.0053,2.0043,2.0044,2.0053,2.0051,2.0046,2.0046,1.9944,2.0041,2.0041,2.004,2.004,2.0039,1.9786,1.9812,1.9831,1.9861,1.9877,1.9896,1.9921,1.993,1.9957,1.9988,1.9988,2.0023,2.0043,2.0081,2.0094,2.0122,2.011,2.0123,2.0126,2.0129,2.013,2.0044,2.0128,2.0127,2.0127,2.0127,2.0127,0,1.987,1.9881,1.9909,1.9937,1.996,1.995,1.9972,1.9992,2.0023,2.0042,2.0067,2.0104,2.0134,2.0146,2.0175,2.0194,2.0191,2.0202,2.0199,2.0201,2.014,2.0129,2.0204,2.0204,2.0204,2.0204,2.0204,2.0204,1.9916,1.9959,1.9961,2.0011,2.0022,2.0056,2.0069,2.0086,2.0101,2.0142,2.0166,2.0174,2.019,2.0219,2.0246,2.0248,2.0258,2.0271,2.0271,2.0214,2.0206,2.0198,2.0187,2.0274,2.0274,2.033,2.033,2.033]},{"header":{"parameterUnit":"m.s-1","parameterCategory":1,"la1":30.2991,"la2":30.254,"lo1":-89.0895,"lo2":-89.0444,"dy":0.0017,"dx":0.0017,"nx":28,"ny":28,"refTime":"2024-03-20T03:00:00:Z","depth":0,"parameterNumber":3,"parameterNumberName":"V-component_of_WINDS"},"data":[0,0,0,0,0,0,0,0,0,0,0,0,0,0,0,0,0,0,0,0,0,0,0,0,0,0,0,0,0,0,0,0,0,0,0,0,0,0,0,0,0,0,0,0,0,0,0,0,0,0,0,0,0,0,0,0,0,0,2.74,2.7399,0,2.7283,2.7282,2.728,2.7206,2.7206,2.7206,2.7205,2.7078,2.7076,2.7073,0,0,0,0,0,0,0,0,0,0,0,0,0,2.7552,2.755,2.74,2.7399,2.7398,2.7283,2.7282,2.728,2.7206,2.7206,2.7205,2.7205,2.7079,2.7076,2.7072,0,0,0,0,0,0,0,0,0,0,0,0,0,2.7466,2.7549,2.7401,2.7347,2.7341,2.7284,2.7282,2.728,2.7207,2.7206,2.7205,2.7205,2.7081,2.7076,2.7072,2.7056,0,0,2.7058,2.7056,0,0,0,0,0,0,0,0,2.7471,2.746,2.7356,2.7351,2.7344,2.7259,2.7289,2.7205,2.7207,2.7257,2.7205,2.7204,2.7139,2.7129,2.7108,2.705,2.7045,2.7058,2.7055,2.7053,2.7052,0,0,0,0,0,0,0,2.7477,2.7465,2.7354,2.7355,2.7347,2.7326,2.7313,2.7272,2.7203,2.7253,2.7247,2.7235,2.7135,2.7113,2.7105,2.7043,2.7058,2.7054,2.7051,2.7049,2.6962,2.6963,0,0,0,0,0,0,2.7492,2.747,2.7358,2.735,2.7407,2.7324,2.731,2.7287,2.7203,2.719,2.7236,2.7232,2.7121,2.711,2.71,2.7074,2.7053,2.7049,2.7046,2.6962,2.6962,2.6963,0,0,0,0,0,0,2.7496,2.7483,2.7362,2.7409,2.7392,2.7322,2.7297,2.7285,2.7263,2.719,2.7176,2.7226,2.712,2.7106,2.7067,2.7069,2.7047,2.7043,2.6961,2.6962,2.6962,2.7023,0,0,0,0,0,0,2.7501,2.7485,2.748,2.7409,2.739,2.7334,2.7297,2.7283,2.7256,2.725,2.7178,2.7165,2.7118,2.7074,2.7063,2.7062,2.7039,2.6961,2.6962,2.6962,2.7021,2.7026,2.703,0,0,0,0,0,2.7506,2.7501,2.7481,2.7467,2.7383,2.7335,2.7323,2.7272,2.7257,2.725,2.7202,2.7167,2.7071,2.7071,2.7057,2.7055,2.6961,2.6961,2.6962,2.7019,2.7025,2.703,0,0,0,0,0,0,2.7573,2.7491,2.7467,2.744,2.7395,2.7322,2.7313,2.728,2.7237,2.7233,2.7169,2.7153,2.712,2.7083,2.7085,2.7034,2.7011,2.7009,2.7059,2.7064,2.7069,2.7077,2.7035,0,0,0,0,0,2.7585,2.7555,2.7484,2.7466,2.7445,2.7383,2.736,2.7324,2.7274,2.7254,2.7204,2.7155,2.7113,2.7087,2.7044,2.7015,2.6997,2.7007,2.7012,2.7016,2.7014,2.6993,2.6996,2.6965,2.6965,2.6965,0,0,2.7608,2.7559,2.7544,2.7478,2.7439,2.7407,2.7367,2.7335,2.7309,2.7248,2.7209,2.717,2.711,2.7076,2.7058,2.7044,2.7019,2.7017,2.7021,2.7017,2.6994,2.6997,2.7,2.6966,2.6966,2.6966,0,0,2.7633,2.7595,2.7575,2.7537,2.7479,2.7437,2.7432,2.7364,2.7337,2.7296,2.7249,2.7216,2.7146,2.7105,2.7075,2.7082,2.7047,2.707,2.7094,2.7074,2.7077,2.7078,2.7078,2.708,2.7069,2.7069,2.707,0,2.7669,2.7621,2.7568,2.7538,2.7509,2.7454,2.7431,2.7396,2.7327,2.7306,2.7293,2.7202,2.7159,2.7112,2.7114,2.7092,2.7082,2.7078,2.7081,2.7082,2.7083,2.7082,2.7083,2.7072,2.7072,2.7072,2.7072,0,2.7666,2.7633,2.7623,2.7559,2.7528,2.7502,2.7443,2.7418,2.7385,2.7344,2.7301,2.7246,2.7191,2.7177,2.7143,2.7125,2.7118,2.7094,2.7069,2.709,2.7088,2.7087,2.7077,2.7076,2.7075,2.7074,0,0,2.773,2.7637,2.7634,2.7603,2.7534,2.7506,2.7475,2.7423,2.7402,2.7355,2.7326,2.7267,2.7244,2.7209,2.717,2.7153,2.7159,2.713,2.7128,2.7136,2.7131,2.7149,2.715,2.7136,2.7136,2.7136,2.7136,0,2.7743,2.7689,2.764,2.7603,2.7569,2.7516,2.7489,2.7442,2.7402,2.7366,2.7321,2.7279,2.7253,2.7232,2.7212,2.7163,2.7157,2.7162,2.7105,2.7104,2.7121,2.7149,2.7168,2.7171,2.7135,2.7135,2.7135,0,2.7752,2.7709,2.7669,2.7601,2.7585,2.7563,2.7509,2.7476,2.7421,2.7392,2.7354,2.7313,2.7275,2.7255,2.72,2.7205,2.7178,2.715,2.7149,2.714,2.712,2.714,2.7171,2.7171,2.7134,2.7134,2.7134,0,2.78,2.7732,2.7698,2.7674,2.7595,2.7579,2.7545,2.7489,2.746,2.7412,2.7392,2.734,2.7311,2.727,2.7215,2.7206,2.7164,2.7141,2.7137,2.7138,2.713,2.7131,2.7156,2.7116,2.7116,2.7116,2.7116,0,2.7819,2.7796,2.7719,2.7698,2.7669,2.7612,2.7584,2.7544,2.7495,2.7463,2.7413,2.7383,2.7313,2.7274,2.723,2.7189,2.7177,2.7151,2.7139,2.7154,2.7157,2.7135,2.7132,2.7116,2.7116,2.7116,2.7116,0,2.7868,2.7815,2.7775,2.7703,2.7685,2.7666,2.7604,2.7579,2.7537,2.7497,2.7484,2.7416,2.7367,2.7308,2.724,2.721,2.7173,2.7156,2.7193,2.7185,2.7184,2.7185,2.7195,2.7192,2.7156,2.7156,2.7157,0,2.7883,2.7864,2.7791,2.7767,2.7735,2.7697,2.7667,2.7609,2.7579,2.7513,2.7496,2.7444,2.7399,2.7323,2.7266,2.7213,2.7193,2.72,2.7185,2.72,2.719,2.7192,2.7188,2.7204,2.7205,2.7205,2.7206,0,2.7914,2.7889,2.7849,2.78,2.7766,2.7724,2.7679,2.7661,2.7593,2.7562,2.7513,2.7478,2.7409,2.7356,2.7295,2.7256,2.7218,2.7211,2.7207,2.7222,2.7243,2.7229,2.7202,2.7211,2.721,2.721,2.721,2.721,2.7944,2.7924,2.7869,2.7826,2.7786,2.7745,2.7719,2.7673,2.7632,2.7572,2.754,2.7491,2.7432,2.7347,2.7309,2.7267,2.7254,2.7249,2.7247,2.7246,2.725,2.7251,2.7256,2.7256,2.7256,2.7256,2.7255,0,2.7971,2.7933,2.7894,2.7834,2.7799,2.7769,2.7717,2.7689,2.7647,2.7597,2.7554,2.7496,2.7445,2.7383,2.7327,2.7305,2.7286,2.7292,2.7292,2.7283,2.7266,2.7274,2.7308,2.7308,2.7308,2.7308,2.7308,2.7308,2.7981,2.7944,2.7912,2.7854,2.7815,2.7769,2.7742,2.7702,2.7662,2.76,2.7558,2.7519,2.7463,2.7402,2.7352,2.7335,2.7315,2.7326,2.7304,2.7289,2.7284,2.728,2.7287,2.7323,2.7323,2.7324,2.7324,2.7324]}]]